Location: Contre
(49.7477°N, 2.0963°E)
Time: 14:33:10
(UTC+00:00)

FENGYUN 1C DEB - Visible Passes

Search period start: 03 October 2024 00:00
Search period end: 13 October 2024 00:00
Orbit: 795 x 850 km, 99.1° (Epoch: 02 October)

Date Brightness Start Highest point End Pass type
(mag) Time Alt. Az. Time Alt. Az. Time Alt. Az.
03 Oct ? 17:56:33 10° SE 18:01:32 48° ENE 18:06:36 10° N visible
03 Oct ? 19:37:24 10° SSW 19:41:52 28° W 19:46:22 10° NW visible
04 Oct ? 19:16:44 10° SSW 19:21:39 41° W 19:26:36 10° NNW visible
05 Oct ? 18:56:18 10° S 19:01:26 59° WSW 19:06:40 10° NNW visible
06 Oct ? 18:36:03 10° SSE 18:41:17 85° WSW 18:46:36 10° NNW visible
06 Oct ? 20:19:36 10° WSW 20:22:11 14° W 20:24:47 10° WNW visible
07 Oct ? 18:15:58 10° SSE 18:21:09 67° ENE 18:26:24 10° N visible
07 Oct ? 19:57:56 10° SW 20:01:45 20° W 20:05:35 10° NW visible
08 Oct ? 17:56:04 10° SE 18:01:02 47° ENE 18:06:06 10° N visible
08 Oct ? 19:36:50 10° SSW 19:41:20 29° W 19:45:54 10° NW visible
09 Oct ? 17:36:19 10° SE 17:40:59 34° ENE 17:45:41 10° N visible
09 Oct ? 19:16:02 10° S 19:20:58 42° W 19:25:59 10° NNW visible
10 Oct ? 18:55:27 10° S 19:00:37 61° WSW 19:05:53 10° NNW visible
11 Oct ? 18:35:04 10° SSE 18:40:19 88° WSW 18:45:39 10° NNW visible
11 Oct ? 20:18:26 10° WSW 20:21:11 14° W 20:23:58 10° NW visible
12 Oct ? 18:14:51 10° SSE 18:20:02 65° ENE 18:25:18 10° N visible
12 Oct ? 19:56:41 10° SW 20:00:36 21° W 20:04:33 10° NW visible
